Terug naar catalogus

STARLINK-34978

ActiefCommunicatieSSO
NORAD 65435·PAYLOAD·🇺🇸 United States

Gelanceerd Sep 3, 2025 vanaf Vandenberg Space Force Base

Loading…

Volgende Passages (komende 24 uur)

TLE

VersSource: CelesTrak SupGP

Epoch: Sep 15, 2026, 04:06 UTC

1 65435C 25194B   26258.17131944 -.00046935  00000+0 -14571-2 0  2583
2 65435  97.2845 107.9341 0002045  94.2683 279.5624 15.33458165    15

Volg STARLINK-34978 in realtime met AllMySat

Download on the App Store